User: anonymous   Login
Location: Unspecified
(0.0000°N, 0.0000°E)
Time: 09:49:45
(UTC+01:00)
Language:

ITAMSAT 1 - Orbit

View from above orbital plane
View from above orbital plane
View from above satellite
View from above satellite

Ground track
Ground track

The orbit data is extracted from the following two-line orbital elements,

1 22826U 93061D   18051.97697794 -.00000000  00000-0  17635-4 0  9999
2 22826  98.8431  26.1255 0008264 321.2600  38.7988 14.30353065273140
Epoch (UTC): 20 February 2018 23:26:50
Eccentricity: 0.0008264
inclination: 98.8431°
perigee height: 784 km
apogee height: 796 km
right ascension of ascending node: 26.1255°
argument of perigee: 321.2600°
revolutions per day: 14.30353065
mean anomaly at epoch: 38.7988°
orbit number at epoch: 27314

The dashed part of the orbit path shows where the satellite is in the earth's shadow,  

DLR